Flag for Canada Weather past 2 weeks in Mount Pearl, Newfoundland and Labrador, Canada

Now
39 °F

Partly sunny.


Feels Like: 34 °F
Forecast: 28 / 41 °F
Wind: 8 mph from Northeast

Location: St. John's

Current Time: Apr 18, 2015 at 2:48:56 PM

Latest Report: Apr 18, 2015 at 2:30 PM


Visibility: 15 mi

Pressure: 29.62 "Hg

Humidity: 75%

Dew point: 32 °F

Location of Mount PearlLocation

Historic Weather in Mount Pearl — Graph

°F

Mount Pearl temperature yesterday

Maximum temperature yesterday: 39 °F (at 3:30 PM)
Minimum temperature yesterday: 19 °F (at 12:30 AM)
Average temperature yesterday: 29 °F

Past Weeks' High & Low Weather Summary

 TemperatureHumidityPressure
High52 °F (Apr 14, 12:30 PM)100% (Apr 4, 1:30 AM)30.53 "Hg (Apr 4, 1:30 AM)
Low10 °F (Apr 9, 6:30 AM)41% (Apr 13, 1:30 PM)29.19 "Hg (Apr 5, 4:30 AM)
Average30 °F77%29.98 "Hg
* Reported Apr 3 1:30 PM — Apr 18 1:30 PM, Mount Pearl, Weather by CustomWeather, © 2015

Note: Actual official high and low records may vary slightly from our data, if they occured in-between our weather recording intervals... More about our weather records

Advertising

Mount Pearl weather history for previous 24 hours

 ConditionsComfort  
Time TempWeatherWind HumidityBarometerVisibility
1:30 PM
Sat, Apr 18
43 °FPartly sunny.7 mph71%29.62 "Hg15 mi
12:30 PM41 °FOvercast.9 mph70%29.62 "Hg15 mi
11:30 AM41 °FBroken clouds.9 mph70%29.59 "Hg15 mi
10:30 AM41 °FPartly sunny.13 mph70%29.59 "Hg15 mi
9:30 AM39 °FPartly sunny.10 mph75%29.59 "Hg15 mi
8:30 AM37 °FPartly sunny.15 mph81%29.59 "Hg15 mi
7:30 AM34 °FPartly sunny.7 mph87%29.58 "Hg15 mi
6:30 AM32 °FPassing clouds.3 mph87%29.58 "Hg15 mi
5:30 AM32 °FMostly cloudy.2 mph80%29.58 "Hg15 mi
4:30 AM34 °FOvercast.8 mph81%29.59 "Hg15 mi
3:30 AM32 °FOvercast.6 mph87%29.61 "Hg15 mi
2:30 AM32 °FOvercast.8 mph87%29.62 "Hg15 mi
1:30 AM32 °FOvercast.7 mph87%29.64 "Hg15 mi
12:30 AM32 °FOvercast.6 mph87%29.65 "Hg15 mi
11:30 PM
Fri, Apr 17
32 °FMostly cloudy.16 mph87%29.67 "Hg15 mi
10:30 PM32 °FPassing clouds.5 mph87%29.69 "Hg15 mi
9:30 PM34 °FOvercast.3 mph81%29.69 "Hg15 mi
8:30 PM36 °FOvercast.6 mph75%29.69 "Hg15 mi
7:30 PM36 °FOvercast.8 mph75%29.70 "Hg15 mi
6:30 PM36 °FOvercast.10 mph70%29.73 "Hg15 mi
5:30 PM36 °FOvercast.15 mph70%29.73 "Hg15 mi
4:30 PM37 °FOvercast.17 mph56%29.75 "Hg15 mi
3:30 PM39 °FOvercast.15 mph42%29.78 "Hg15 mi
2:30 PM37 °FOvercast.13 mph45%29.82 "Hg15 mi
Weather by CustomWeather, © 2015

See weather overviewHow to use our weather pages